Dewpoint
37 36 38 38 38 40 41 42 42 42 43 45 46 47 49 50 50 50 50 50 50 50 51 50 51 50 49 49 50 47 46 43 38 40 41 41 41 41 41 41 41 41 41
37 35 38 37 38 39 40 41 42 42 43 45 45 46 49 50 49 50 49 49 49 50 51 51 49 48 47 48 48 45 44 43 41 38 39 38 38 39 39 38 37 38 38
36 36 37 38 38 38 40 41 42 42 43 45 45 45 48 50 50 50 50 50 50 50 51 49 49 47 46 47 47 45 44 42 41 39 37 37 37 36 35 35 35 36 34
37 36 38 38 38 38 39 41 42 42 43 45 45 45 47 49 51 50 50 50 50 50 51 51 49 48 46 45 46 45 43 42 40 39 37 36 35 35 35 33 32 34 33
37 37 37 39 38 38 40 41 42 42 42 44 45 46 47 47 50 51 50 50 50 49 50 49 50 46 42 43 45 45 44 41 39 37 36 35 33 32 32 33 31 31 32
37 37 36 37 38 39 40 41 41 42 42 44 45 46 46 46 45 44 48 50 49 49 48 49 47 39 42 41 42 42 43 41 39 38 37 35 34 34 33 32 31 30 29
38 38 37 37 38 39 39 40 40 41 42 43 45 46 46 46 43 43 42 50 50 49 48 48 46 45 42 44 41 41 40 40 41 40 39 37 34 34 33 32 32 32 30
39 38 37 38 38 39 40 38 39 40 41 43 45 45 45 45 43 42 41 49 50 50 49 48 46 45 45 43 43 43 42 42 42 41 41 39 38 35 34 34 32 30 30
38 38 37 38 38 39 39 38 38 40 41 43 44 45 45 45 41 40 42 47 48 49 49 48 47 46 41 41 43 41 39 39 40 40 41 40 38 37 36 32 31 29 27
38 38 38 38 38 38 39 39 40 41 41 43 44 45 40 45 40 40 41 45 45 44 45 46 36 44 40 41 43 39 37 38 37 37 37 38 37 36 35 35 32 32 29
37 37 37 38 38 38 39 40 40 41 40 40 39 40 40 41 43 41 41 42 43 38 39 37 38 40 40 41 42 40 40 37 38 36 35 35 35 35 34 35 33 34 31
36 36 36 37 37 38 38 38 38 39 38 36 36 36 36 38 37 41 40 41 42 40 38 38 38 40 40 41 40 41 39 37 36 35 35 34 34 34 34 34 33 32 32
34 33 34 34 34 36 37 36 36 37 36 35 34 35 35 34 36 38 39 39 39 38 36 38 39 40 40 40 40 39 36 37 36 35 35 35 35 34 35 33 32 31 30
33 34 34 34 34 35 35 35 36 36 35 34 33 34 34 34 35 36 35 36 35 36 36 35 37 38 39 38 35 37 36 37 37 37 36 36 34 33 33 33 32 30 31
33 33 34 34 34 34 34 35 34 35 35 34 34 34 34 34 34 37 36 34 34 34 34 34 33 33 34 34 35 35 35 35 35 35 34 34 34 33 33 32 33 31 31
32 33 33 33 33 33 33 34 34 35 35 36 37 36 33 36 38 38 38 38 38 37 34 33 33 33 34 34 34 34 34 34 35 35 35 34 34 33 32 32 32 31 31
32 32 33 33 33 34 34 34 33 34 35 35 35 35 35 35 36 37 38 38 38 37 33 33 33 33 33 33 33 33 33 34 36 34 35 34 34 33 32 31 32 31 31
31 30 31 31 31 32 32 32 34 34 33 33 34 35 35 35 35 36 38 37 34 34 33 33 33 33 33 33 33 34 33 33 33 34 34 34 34 33 33 32 32 32 32
29 30 30 30 30 29 30 30 31 30 30 32 33 34 33 35 36 37 38 33 33 33 33 33 33 33 33 33 33 33 33 33 33 33 33 34 33 34 33 33 33 32 32
24 26 28 29 29 29 29 28 27 28 28 28 29 29 32 33 32 33 33 33 33 33 33 33 33 33 33 33 33 33 33 33 33 33 33 33 33 33 33 33 33 32 32
25 26 26 28 28 28 28 28 27 27 27 26 27 29 27 30 31 32 32 32 32 33 33 33 33 33 33 33 33 33 33 33 33 33 33 33 33 32 33 33 33 33 33
24 25 25 26 26 26 26 26 26 25 25 26 27 26 25 27 27 29 29 31 32 32 33 33 33 33 33 33 33 33 33 33 33 33 33 33 33 32 32 32 32 32 32
20 20 19 20 20 19 22 22 22 23 23 24 24 25 26 26 26 27 27 28 30 31 32 32 32 33 33 33 33 33 32 33 33 33 33 33 32 32 32 32 32 32 32
18 18 17 16 16 17 17 16 15 13 16 18 19 19 19 19 20 20 21 24 25 25 28 26 27 30 31 32 33 33 33 33 33 33 33 33 33 33 32 32 32 32 32
15 15 15 15 14 14 14 14 14 14 15 15 16 16 16 16 16 17 18 18 16 18 18 19 21 23 25 25 29 31 32 32 33 33 33 33 32 33 32 32 32 32 32
12 12 12 13 12 12 12 12 12 12 12 13 13 13 13 13 14 14 14 13 13 13 14 16 16 15 15 20 24 21 22 25 27 30 32 32 32 32 32 32 32 32 31
Lifted_Index
12 11 11 12 13 13 12 11 11 11 11 11 11 10 9 8 8 8 8 8 8 8 7 6 6 5 4 4 4 4 4 4 4 5 6 7 7 8 8 9 10 11 11
11 11 11 11 12 12 12 11 11 11 11 11 11 10 9 8 8 8 8 8 8 8 7 6 6 5 4 4 4 4 4 4 4 4 5 6 7 7 8 8 9 10 11
11 11 11 11 11 12 12 11 11 11 11 11 11 10 9 8 8 8 7 7 7 7 7 6 6 5 5 5 4 4 4 4 4 4 4 5 6 7 7 7 8 9 10
10 10 10 11 11 11 12 12 11 10 10 10 10 10 9 8 7 7 7 7 7 7 6 6 5 5 5 5 4 4 4 4 4 4 4 4 5 6 6 6 7 8 8
10 10 10 11 11 11 11 12 11 10 10 9 10 10 9 8 7 7 7 7 7 7 6 6 5 5 5 5 4 4 4 4 4 4 3 4 4 5 5 5 6 6 7
9 9 10 10 10 11 11 11 11 11 10 9 9 9 9 8 7 7 7 7 6 6 6 6 5 5 5 4 4 4 4 4 4 4 4 4 4 4 4 5 5 6 6
9 9 9 10 10 10 10 10 11 11 10 10 9 9 9 8 8 7 6 6 5 5 5 5 5 5 5 4 4 5 5 5 4 4 4 4 4 4 4 5 5 5 6
9 9 9 9 9 10 10 10 10 11 11 11 10 9 9 8 8 7 6 5 4 4 4 4 4 4 4 4 4 5 5 5 5 5 5 5 4 4 5 5 5 5 6
8 8 9 9 9 9 9 9 10 10 11 11 11 10 9 8 8 7 5 4 3 3 4 4 4 4 4 4 4 5 5 5 5 5 5 5 5 5 5 5 5 5 6
8 8 9 9 9 9 9 9 10 10 11 11 11 10 9 9 8 7 5 4 3 3 3 4 4 4 4 4 4 4 5 4 4 4 4 4 5 6 6 6 6 6 6
8 8 8 8 9 9 9 9 10 11 11 11 11 11 10 9 8 6 5 4 3 3 3 3 4 4 4 4 4 4 4 4 4 4 4 4 5 5 6 6 6 6 6
7 7 8 8 8 8 9 10 10 11 11 11 11 11 10 8 7 6 5 4 3 3 3 3 3 4 4 4 4 5 5 5 4 4 4 4 5 5 5 6 7 7 7
7 8 8 8 8 8 9 10 10 11 11 11 11 10 9 8 7 7 6 5 3 3 3 3 3 4 4 4 4 5 5 5 5 5 4 4 4 5 5 5 6 7 7
8 8 8 8 8 9 9 10 10 11 11 11 10 9 8 8 7 7 6 4 3 2 3 3 3 4 4 4 4 5 5 5 5 5 5 4 4 4 4 5 6 6 6
9 9 9 9 9 9 9 10 11 11 11 11 11 10 9 8 7 6 6 4 3 2 3 3 4 4 4 4 4 5 5 5 5 5 5 4 4 4 4 5 5 5 5
11 11 11 11 11 10 10 10 11 12 12 11 11 10 9 8 7 6 6 4 3 2 3 3 4 4 4 4 5 5 5 5 5 5 5 5 4 4 4 5 5 5 5
12 12 12 12 12 12 11 12 12 12 12 12 11 10 9 9 8 7 6 5 4 3 3 3 4 4 4 4 5 5 5 5 5 5 5 5 5 5 5 5 5 5 5
13 13 13 13 13 13 13 14 14 13 13 12 11 11 10 9 9 8 7 6 5 4 4 4 4 4 5 5 5 5 5 5 5 5 5 5 5 5 5 5 5 5 5
13 13 14 14 14 14 14 15 15 15 14 14 13 12 11 10 10 9 9 8 7 6 6 5 5 5 5 5 5 5 5 6 6 6 6 6 5 5 5 5 5 5 5
13 13 14 14 14 14 15 15 15 15 15 15 14 14 13 12 11 11 10 9 9 8 8 7 7 7 6 6 6 5 6 6 6 7 7 7 6 6 6 6 6 5 5
13 13 14 14 14 14 15 15 15 15 15 15 15 15 15 14 13 13 12 11 11 10 9 8 8 9 8 8 7 6 6 7 7 7 7 8 7 7 7 7 7 6 6
13 13 14 14 14 14 14 15 15 15 15 15 15 15 15 15 15 15 14 14 13 12 11 11 10 10 10 10 9 8 7 7 8 8 8 8 8 8 8 8 8 7 7
13 13 13 14 14 14 14 14 14 14 14 14 15 15 15 15 16 16 15 15 15 15 14 13 13 12 12 12 11 11 10 9 10 10 10 9 9 9 9 9 9 8 8
13 13 13 14 14 14 14 14 14 14 14 14 15 15 15 15 15 16 16 16 16 16 16 16 15 15 15 14 14 13 13 13 13 12 12 11 11 10 10 10 10 10 10
13 13 14 14 14 14 14 14 14 14 15 15 15 15 15 16 16 16 16 16 16 16 17 17 17 16 16 16 16 16 15 15 15 15 14 13 13 12 12 11 11 11 11
13 13 13 14 14 14 14 14 14 15 15 15 15 16 16 16 16 16 16 16 17 17 17 17 17 17 16 16 16 16 16 16 16 16 16 15 14 13 13 13 12 12 11